Regional Weather Roundup
Issued by NWS Cleveland, OH

Home | Current Version | Previous Version | Text Only | Print | Product List | Glossary Off
Versions: 1 2 3 4 5 6 7 8 9 10 11 12 13 14 15 16 17 18 19 20 21 22 23 24 25 26 27 28 29 30 31 32 33 34 35 36 37 38 39 40 41 42 43 44 45 46 47 48 49 50

000
ASUS41 KCLE 250810
RWRCLE
OHIO REGIONAL WEATHER ROUNDUP
NATIONAL WEATHER SERVICE WILMINGTON, OH
300 AM EST SUN JAN 25 2015

NOTE: "FAIR" INDICATES FEW OR NO CLOUDS BELOW 12,000 FEET WITH NO
SIGNIFICANT WEATHER AND/OR OBSTRUCTIONS TO VISIBILITY.

OHZ001>008-015>018-024>027-034-035-043-044-250900-
   NORTHWEST OHIO

CITY           SKY/WX    TMP DP  RH WIND       PRES   REMARKS
DEFIANCE       CLOUDY    37  33  85 SW7       29.71S
FINDLAY        CLOUDY    36  32  85 SW5       29.70S
TOLEDO EXPRESS CLOUDY    35  32  88 CALM      29.69F
TOLEDO EXEC    CLOUDY    35  31  85 SW6       29.72R
LIMA           CLOUDY    37  31  78 SW8       29.71S
$$

OHZ009>014-019>023-028>033-038-089-250900-
   NORTHEAST OHIO

CITY           SKY/WX    TMP DP  RH WIND       PRES   REMARKS
CLE-HOPKINS    CLOUDY    33  31  92 SW6       29.74R FOG     WCI  28
CLE-LAKEFRONT  LGT SNOW  34  31  88 SW8       29.71R FOG     WCI  27
CUY CO. ARPT   NOT AVBL
LORAIN-ELYRIA  CLOUDY    34  31  88 W8        29.72R WCI  27
ASHTABULA      CLOUDY    34  30  85 W8        29.70R WCI  27
AKRON-CANTON   CLOUDY    34  30  85 SW9       29.71R FOG     WCI  27
WOOSTER        CLOUDY    33  31  92 SW10      29.73R WCI  25
MANSFIELD      CLOUDY    34  31  88 SW9       29.72R WCI  27
YOUNGSTOWN     CLOUDY    33  30  88 W10       29.69R FOG     WCI  25
$$

OHZ042-051>053-060>062-070>072-077>081-250900-
  SOUTHWEST OHIO

CITY           SKY/WX    TMP DP  RH WIND       PRES   REMARKS
CINC-COVINGTON CLOUDY    35  30  82 S8        29.76S WCI  29
CINC-LUNKEN    CLOUDY    31  29  92 CALM      29.79F
HAMILTON       CLOUDY    33  29  85 SE3       29.77F
DAYTON         MOCLDY    35  29  78 S7        29.74F WCI  29
WRIGHT-PAT AFB MOCLDY    34  29  81 S7        29.74F WCI  28
DAYTON GENERAL CLOUDY    33  29  85 S7        29.74F WCI  27
WILMINGTON     MOCLDY    31  28  89 S8        29.76F FOG     WCI  23
$$

OHZ036-037-039>041-045>050-054>059-063>069-073>076-082>088-250900-
  CENTRAL AND SOUTHEAST OHIO

CITY           SKY/WX    TMP DP  RH WIND       PRES   REMARKS
COLUMBUS       CLOUDY    34  29  82 S5        29.77R WCI  30
OSU AIRPORT    CLOUDY    36  29  75 S8        29.75S
BOLTON FIELD   CLOUDY    35  31  87 MISG      29.76F
RICKENBACK AFB CLOUDY    34  30  86 S8        29.77S WCI  27
NEWARK         CLOUDY    36  30  79 SW7       29.76R
MARION         CLOUDY    35  30  82 SW9       29.73S WCI  28
LANCASTER      CLOUDY    36  30  79 SW5       29.78R
ZANESVILLE     CLOUDY    33  29  85 S9        29.77S FOG     WCI  25
NEW PHILLY     CLOUDY    35  30  82 SW6       29.76R
$$


USA.gov is the U.S. government's official web portal to all federal, state and local government web resources and services.